SCP
1 0 0 0 0 0 0 0 0 0 0 0 0 0 0 0 0 0 0 0 0 0
0 0 0 0 0 0 0 0 0 0 0 0 0 0 0 0 0 0 0 0 0 0
0 0 0 0 0 0 0 0 0 0 0 0 0 0 0 0 0 0 0 0 0 0
0 0 0 0 0 0 0 0 0 0 0 0 0 0 0 0 0 0 0 0 0 0
0 0 0 0 0 0 0 0 0 0 0 0 0 0 0 0 0 0 0 0 0 0
0 0 0 0 0 0 0 0 0 0 0 0 0 0 0 0 0 0 0 0 0 0
0 0 0 0 0 0 0 0 0 0 0 0 0 0 0 0 0 0 0 0 0 0
0 0 0 0 0 0 0 0 0 0 0 0 0 0 0 0 0 0 0 0 0 0
0 0 0 0 0 0 0 0 0 0 0 0 0 0 0 0 0 0 0 0 0 0
0 0 0 0 0 0 0 0 0 0 0 0 0 0 0 0 0 0 0 0 0 0
0 0 0 0 0 0 0 0 0 0 0 0 0 0 0 0 0 0 0 0 0 0
0 0 0 0 0 0 0 0 0 0 0 0 0 0 0 0 0 0 0 0 0 0
0 0 0 0 0 0 0 0 0 0 0 0 0 0 0 0 0 0 0 0 0 0
0 0 0 0 0 0 0 0 0 0 0 0 0 0 0 0 0 0 0 0 0 0
Wind_Speed_500mb
49 39 35 31 32 32 19 16 15 13 13 14 16 16 17 21 26 26 29 27 27 16
42 48 49 44 40 26 18 17 15 13 12 13 17 21 21 23 26 28 20 22 22 23
58 46 45 45 33 25 24 15 14 13 14 15 19 26 20 23 26 23 20 25 27 26
53 46 40 35 29 25 20 16 17 18 18 18 22 28 30 26 25 24 24 24 24 25
49 42 37 33 28 22 19 20 21 23 20 18 23 27 26 22 20 20 19 20 20 26
47 41 35 30 25 23 24 26 25 24 24 24 27 28 25 20 21 19 19 23 27 29
40 37 32 29 27 26 25 27 27 28 29 29 27 30 23 20 20 17 19 22 22 25
42 36 35 32 30 30 29 28 27 29 26 24 22 26 25 24 13 12 13 15 22 26
42 39 37 33 33 32 33 32 27 21 18 22 24 22 20 17 17 12 14 18 23 26
42 40 36 35 34 32 33 33 28 18 18 24 23 20 16 11 17 16 18 21 26 40
41 41 38 36 34 28 28 31 29 22 22 23 22 18 15 18 19 19 19 29 37 45
44 43 41 35 37 27 27 27 27 27 16 20 19 15 13 23 18 10 11 24 31 39
45 43 37 39 34 28 29 30 26 21 15 19 15 13 11 6 5 9 16 20 29 38
46 41 40 38 31 36 32 28 25 20 16 14 12 9 6 6 9 10 7 12 25 32
Wind_Direction_500mb
173 184 144 157 136 163 177 149 134 111 84 66 72 82 80 86 81 81 71 89 90 63
162 153 163 160 170 171 145 135 114 93 80 83 96 85 81 90 92 85 59 69 74 55
159 159 162 169 167 148 141 126 100 91 94 102 109 109 88 81 82 89 85 61 56 49
161 160 155 156 149 138 127 111 104 96 93 98 105 108 89 77 75 71 68 65 46 40
152 152 151 145 138 136 129 118 111 108 105 102 106 104 113 105 90 82 70 61 44 29
149 150 147 143 139 132 126 120 115 109 105 100 98 100 99 93 79 64 55 47 36 10
149 150 144 140 134 132 129 122 117 111 110 107 118 121 100 80 81 72 42 41 40 355
149 144 139 135 134 130 124 118 118 125 142 149 138 136 122 105 89 78 62 33 28 8
142 142 142 136 135 134 126 121 119 129 145 124 131 132 126 117 94 50 39 27 31 1
146 140 133 132 132 129 128 133 128 147 140 131 127 126 118 95 81 28 17 6 6 359
139 134 134 135 137 137 138 130 128 124 125 132 128 118 107 84 64 29 12 355 351 350
140 137 144 143 129 136 134 128 123 120 122 130 128 120 101 90 68 357 12 346 340 349
140 145 146 137 138 137 117 123 125 129 134 131 130 124 120 98 101 62 36 352 338 348
146 147 140 144 142 119 142 140 133 145 145 112 121 117 99 53 29 27 41 325 347 0
Wind_Speed_850mb
49 39 35 31 32 32 19 16 15 13 13 14 16 16 17 21 26 26 29 27 27 16
42 48 49 44 40 26 18 17 15 13 12 13 17 21 21 23 26 28 20 22 22 23
58 46 45 45 33 25 24 15 14 13 14 15 19 26 20 23 26 23 20 25 27 26
53 46 40 35 29 25 20 16 17 18 18 18 22 28 30 26 25 24 24 24 24 25
49 42 37 33 28 22 19 20 21 23 20 18 23 27 26 22 20 20 19 20 20 26
47 41 35 30 25 23 24 26 25 24 24 24 27 28 25 20 21 19 19 23 27 29
40 37 32 29 27 26 25 27 27 28 29 29 27 30 23 20 20 17 19 22 22 25
42 36 35 32 30 30 29 28 27 29 26 24 22 26 25 24 13 12 13 15 22 26
42 39 37 33 33 32 33 32 27 21 18 22 24 22 20 17 17 12 14 18 23 26
42 40 36 35 34 32 33 33 28 18 18 24 23 20 16 11 17 16 18 21 26 40
41 41 38 36 34 28 28 31 29 22 22 23 22 18 15 18 19 19 19 29 37 45
44 43 41 35 37 27 27 27 27 27 16 20 19 15 13 23 18 10 11 24 31 39
45 43 37 39 34 28 29 30 26 21 15 19 15 13 11 6 5 9 16 20 29 38
46 41 40 38 31 36 32 28 25 20 16 14 12 9 6 6 9 10 7 12 25 32
Wind_Direction_850mb
173 184 144 157 136 163 177 149 134 111 84 66 72 82 80 86 81 81 71 89 90 63
162 153 163 160 170 171 145 135 114 93 80 83 96 85 81 90 92 85 59 69 74 55
159 159 162 169 167 148 141 126 100 91 94 102 109 109 88 81 82 89 85 61 56 49
161 160 155 156 149 138 127 111 104 96 93 98 105 108 89 77 75 71 68 65 46 40
152 152 151 145 138 136 129 118 111 108 105 102 106 104 113 105 90 82 70 61 44 29
149 150 147 143 139 132 126 120 115 109 105 100 98 100 99 93 79 64 55 47 36 10
149 150 144 140 134 132 129 122 117 111 110 107 118 121 100 80 81 72 42 41 40 355
149 144 139 135 134 130 124 118 118 125 142 149 138 136 122 105 89 78 62 33 28 8
142 142 142 136 135 134 126 121 119 129 145 124 131 132 126 117 94 50 39 27 31 1
146 140 133 132 132 129 128 133 128 147 140 131 127 126 118 95 81 28 17 6 6 359
139 134 134 135 137 137 138 130 128 124 125 132 128 118 107 84 64 29 12 355 351 350
140 137 144 143 129 136 134 128 123 120 122 130 128 120 101 90 68 357 12 346 340 349
140 145 146 137 138 137 117 123 125 129 134 131 130 124 120 98 101 62 36 352 338 348
146 147 140 144 142 119 142 140 133 145 145 112 121 117 99 53 29 27 41 325 347 0